This is the latest recevied weather packets stored in our database for station/object OK1JIL-13. If no packets are shown the sender has not sent any weather packets the latest 10 day(s).
| Time | Temp. | Humidity | Pressure | Rain* | Wind** | Luminosity | Snow |
|---|---|---|---|---|---|---|---|
| 1776942771 | 15.56° C | 24% | 1019.8 hPa | - | - | - | - |
| 1776942171 | 15.56° C | 24% | 1019.8 hPa | - | - | - | - |
| 1776941571 | 14.44° C | 22% | 1019.8 hPa | - | - | - | - |
| 1776940971 | 14.44° C | 23% | 1019.9 hPa | - | - | - | - |
| 1776940371 | 13.89° C | 23% | 1019.9 hPa | - | - | - | - |
| 1776939771 | 12.78° C | 23% | 1019.9 hPa | - | - | - | - |
| 1776939171 | 12.78° C | 20% | 1019.9 hPa | - | - | - | - |
| 1776938570 | 13.33° C | 21% | 1019.9 hPa | - | - | - | - |
| 1776937971 | 14.44° C | 19% | 1020 hPa | - | - | - | - |
| 1776937371 | 15° C | 20% | 1020.2 hPa | - | - | - | - |
| 1776936771 | 14.44° C | 20% | 1020.2 hPa | - | - | - | - |
| 1776936171 | 13.89° C | 22% | 1020.2 hPa | - | - | - | - |
| 1776935571 | 11.67° C | 22% | 1020.3 hPa | - | - | - | - |
| 1776934971 | 11.67° C | 23% | 1020.4 hPa | - | - | - | - |
| 1776934371 | 11.67° C | 22% | 1020.6 hPa | - | - | - | - |
| 1776933773 | 12.78° C | 21% | 1020.7 hPa | - | - | - | - |
| 1776933169 | 12.22° C | 23% | 1020.4 hPa | - | - | - | - |
| 1776932571 | 12.78° C | 23% | 1020.6 hPa | - | - | - | - |
| 1776931969 | 12.78° C | 25% | 1020.3 hPa | - | - | - | - |
| 1776931369 | 11.11° C | 28% | 1020.4 hPa | - | - | - | - |
| 1776930769 | 11.11° C | 27% | 1020.4 hPa | - | - | - | - |
| 1776930169 | 10.56° C | 28% | 1020.5 hPa | - | - | - | - |
| 1776929569 | 10.56° C | 35% | 1020.5 hPa | - | - | - | - |
| 1776928969 | 8.89° C | 36% | 1020.6 hPa | - | - | - | - |
| 1776928369 | 9.44° C | 36% | 1020.4 hPa | - | - | - | - |
* Rain since midnight (hover to see other rain measurements)
** Current wind speed in m/s (hover to see current wind gust speed)